Probability
0 0 0 0 0 0 0 0 0 0 0 0 0 0 0 0 0 0 0 0 0 0 0 0 0 0 0 0 0 0 0 0 0 0 0 0 0 0 0 0 0 0 0
0 0 0 0 0 0 0 0 0 0 0 0 0 0 0 0 0 0 0 0 0 0 0 0 0 0 0 0 0 0 0 0 0 0 0 0 0 0 0 0 0 0 0
0 0 0 0 0 0 0 0 0 0 0 0 0 0 0 0 0 0 0 0 0 0 0 0 0 0 0 0 0 0 0 0 0 0 0 0 0 0 0 0 0 0 0
0 0 0 0 0 0 0 0 0 0 0 0 0 0 0 0 0 0 0 0 0 0 0 0 0 0 0 0 0 0 0 0 0 0 0 0 0 0 0 0 0 0 0
0 0 0 0 0 0 0 0 0 0 0 0 0 0 0 0 0 0 0 0 0 0 0 0 0 0 0 0 0 0 0 0 0 0 0 0 0 0 0 0 0 0 0
0 0 0 0 0 0 0 0 0 0 0 0 0 0 0 0 0 0 0 0 0 0 0 0 0 0 0 0 0 0 0 0 0 0 0 0 0 1 0 0 0 0 0
1 1 0 0 0 0 0 0 0 0 0 0 0 0 0 0 0 0 0 0 0 0 0 0 0 0 0 0 0 0 0 0 0 0 0 0 3 6 4 1 0 0 0
9 7 2 0 0 0 0 0 0 0 0 0 0 0 0 0 0 0 0 0 0 0 0 0 0 0 0 0 0 0 0 0 0 0 0 2 10 17 14 5 0 0 0
23 18 7 0 1 1 0 0 0 0 0 0 0 0 0 0 0 0 0 0 0 0 0 0 0 0 0 0 0 0 0 0 0 0 0 6 21 31 25 10 2 0 0
32 28 13 1 1 1 0 0 0 0 0 0 0 0 0 0 0 0 0 0 0 0 0 0 0 0 0 0 0 0 0 0 0 0 1 11 33 43 31 13 4 1 0
28 31 19 6 3 2 0 0 0 0 0 0 0 0 0 0 0 1 6 12 12 8 4 2 1 1 0 0 1 2 1 0 0 0 5 22 45 50 32 14 5 2 1
17 25 23 17 13 7 4 5 3 0 2 2 5 10 9 3 1 6 22 40 39 24 11 5 3 2 0 0 2 4 3 1 0 0 11 36 54 50 31 14 6 2 1
14 22 30 37 39 25 18 22 16 9 10 12 19 32 30 15 6 15 43 66 62 41 21 11 8 6 2 2 3 5 5 3 1 3 20 47 60 51 33 18 8 4 2
36 42 52 66 72 59 49 53 47 34 35 40 49 61 60 43 25 31 61 81 75 58 40 26 23 21 13 9 5 4 6 7 5 9 30 57 66 57 44 30 17 8 4
73 76 83 91 93 88 82 83 79 71 68 75 82 86 86 77 60 59 78 92 87 78 67 56 50 45 35 22 11 9 10 11 11 18 40 69 78 70 59 45 30 17 11
96 97 99 100 100 99 98 97 96 92 91 94 98 99 98 96 90 88 93 98 96 91 86 81 76 69 57 42 29 24 22 20 21 29 49 73 86 84 74 59 46 34 26
99 100 100 100 100 100 100 99 99 97 96 98 100 100 100 100 100 100 100 100 100 97 94 92 89 83 75 65 55 44 38 37 39 48 58 67 76 81 81 75 64 51 40
99 100 100 100 100 100 100 100 99 98 98 99 100 100 100 100 100 100 100 100 100 99 98 96 94 91 87 82 73 59 49 51 57 64 67 65 64 69 79 82 75 62 50
100 100 100 100 100 100 100 100 100 100 100 100 100 100 100 100 100 100 100 99 99 99 99 98 96 94 93 89 78 63 53 52 59 65 68 65 63 68 70 71 70 61 50
100 100 100 100 100 100 100 100 100 100 100 100 100 100 100 100 100 100 100 99 99 99 98 96 94 93 92 87 74 61 52 48 49 55 58 58 59 62 57 54 57 50 42
99 100 100 100 100 100 100 100 100 100 100 100 100 100 100 100 100 100 100 100 99 99 97 95 92 88 85 79 69 60 52 46 41 43 49 51 47 44 41 42 44 41 36
96 97 99 100 99 99 100 100 100 100 100 100 100 99 99 100 100 100 100 100 100 99 97 94 90 85 77 70 63 58 52 46 37 34 41 48 44 38 33 30 32 35 34
83 86 93 97 98 99 100 100 100 100 100 100 100 100 99 99 99 99 99 99 99 99 97 94 90 82 72 64 59 54 48 40 31 26 30 40 46 41 29 20 19 22 24
56 65 79 90 95 96 98 99 99 100 100 100 100 100 100 99 98 97 97 97 97 98 97 93 87 79 71 64 59 51 40 29 21 16 18 27 36 34 24 15 11 10 10
27 39 60 78 87 91 95 98 99 100 100 100 99 100 100 99 98 97 96 95 95 96 94 88 80 75 69 62 55 44 33 23 16 10 9 12 18 18 16 13 8 5 4
12 23 45 68 82 89 93 97 98 99 100 100 99 100 100 99 98 97 96 96 95 95 92 83 76 72 65 56 48 38 30 24 17 9 5 5 6 8 11 12 9 5 3
Wind_Speed
18 18 19 15 13 13 14 14 13 13 12 12 11 10 9 9 9 9 9 10 10 10 10 10 10 10 10 10 10 10 10 10 9 10 10 10 9 8 7 7 3 9 11
21 19 19 16 14 13 14 14 13 13 12 12 11 10 9 8 8 8 8 8 8 8 8 8 8 8 8 8 8 8 7 6 6 6 7 8 8 7 6 6 9 9 10
21 18 17 15 14 13 13 13 13 13 13 12 11 10 9 8 7 7 6 6 6 7 7 7 7 7 7 6 6 5 5 3 2 2 5 6 8 8 6 6 8 9 8
20 17 16 16 14 14 13 12 13 13 12 12 11 10 9 8 7 6 5 5 5 5 6 6 6 5 5 5 4 3 2 1 3 5 6 7 7 10 8 6 5 5 5
18 16 17 17 15 14 13 12 12 12 12 12 11 10 9 8 7 6 6 5 5 5 5 5 5 4 4 3 3 2 2 4 6 9 8 3 6 11 10 7 5 5 5
19 18 18 17 15 14 13 12 11 11 11 11 10 9 9 8 7 7 6 6 5 5 5 5 4 4 4 4 4 4 5 6 8 8 8 5 6 12 12 9 7 6 6
19 18 18 17 15 14 13 12 11 11 11 10 10 9 9 8 8 7 7 7 6 6 6 5 5 5 5 6 6 6 7 8 8 9 8 5 6 14 13 11 9 7 8
20 19 17 18 16 14 13 12 12 11 11 10 10 9 9 9 8 8 8 7 7 6 6 6 6 6 6 7 7 8 9 10 10 10 9 5 10 15 14 12 9 8 9
20 20 16 15 14 14 14 13 12 12 11 11 10 10 9 9 9 8 8 8 8 8 8 8 8 8 8 8 9 10 11 11 10 8 11 4 12 15 14 12 10 9 10
17 19 16 15 14 13 12 14 13 13 12 12 11 11 11 10 10 10 10 10 10 10 10 10 10 10 10 10 10 12 13 11 11 11 8 5 13 14 13 11 11 11 11
11 16 16 17 14 13 13 14 14 13 13 12 11 12 11 9 11 11 14 14 14 13 12 12 12 12 11 12 14 15 12 8 11 9 6 7 13 13 12 11 11 11 12
10 13 12 15 15 14 12 12 10 10 11 10 9 11 9 8 8 10 14 16 17 15 14 14 14 12 11 8 12 15 8 11 11 7 4 12 14 13 12 11 11 12 13
11 9 10 10 13 12 8 10 8 7 8 11 11 10 8 7 7 7 6 10 11 13 10 11 12 9 9 7 5 6 9 9 5 4 4 13 13 13 13 12 12 13 13
13 12 11 8 8 7 6 7 8 7 6 8 10 10 8 6 5 4 3 7 8 7 7 7 6 9 9 8 7 7 9 6 4 3 5 14 14 14 14 13 13 14 14
13 12 10 8 7 6 4 3 6 6 6 7 7 9 8 6 6 6 3 3 4 4 6 7 5 5 5 6 6 7 7 6 6 5 4 14 15 15 15 15 15 15 15
12 13 11 9 8 6 5 4 4 4 4 5 5 9 10 7 6 5 4 3 3 3 3 4 5 4 4 4 5 5 5 6 6 6 5 9 16 17 17 17 17 16 16
10 10 11 10 9 8 8 8 7 6 6 5 5 7 9 9 6 5 4 4 4 5 5 4 4 3 4 5 5 6 6 6 6 6 5 4 7 15 17 17 17 16 16
7 8 9 11 12 11 8 7 7 8 7 5 4 5 8 9 7 5 5 5 5 5 4 4 4 4 4 3 3 4 5 4 6 6 5 6 5 6 13 18 17 16 16
4 4 6 6 7 10 10 8 8 7 6 4 4 4 6 8 8 6 5 5 5 4 4 5 4 4 3 3 3 5 5 5 5 7 6 6 6 5 4 11 18 16 16
1 2 3 4 4 4 6 6 6 8 6 5 5 4 5 6 8 7 6 6 5 4 3 3 3 2 2 2 5 6 4 5 5 5 6 6 6 6 6 5 7 10 16
5 2 1 1 2 3 4 5 6 7 6 5 5 6 7 7 7 6 6 5 5 4 5 4 4 4 3 2 3 4 5 7 8 6 5 4 4 3 3 3 3 3 5
8 7 5 4 4 4 4 5 5 5 5 6 5 6 7 7 6 7 7 6 5 5 6 6 6 4 4 4 3 2 3 4 5 6 3 4 4 2 3 4 4 4 3
7 6 6 5 5 5 5 5 5 5 5 6 7 6 6 6 7 7 8 8 7 7 7 8 7 7 6 4 5 4 3 3 3 3 3 3 3 3 3 3 4 4 5
5 5 4 4 5 5 6 5 7 7 8 8 6 5 6 6 7 8 9 8 8 7 8 8 7 6 6 5 4 5 4 2 2 3 3 2 3 3 3 2 2 2 3
5 5 4 4 5 5 6 7 7 7 7 7 7 8 7 7 8 9 9 8 8 8 8 8 7 7 6 6 4 3 4 4 5 4 4 3 3 2 3 3 2 2 1
3 4 4 4 5 5 6 7 7 8 9 9 9 8 7 6 7 9 9 8 9 8 8 7 7 8 7 6 5 4 3 3 4 4 5 4 4 3 2 2 2 2 1
Wind_Direction
124 132 134 133 135 141 145 146 145 143 141 139 136 131 124 117 110 103 98 95 93 91 90 91 90 90 88 86 84 82 80 81 85 93 99 101 98 95 90 78 83 105 102
123 132 134 135 137 143 147 148 147 146 146 146 144 142 137 132 125 117 110 104 100 96 94 94 94 95 95 95 95 94 93 94 102 115 126 125 119 110 94 62 48 103 107
123 132 136 136 140 143 145 147 149 149 150 151 151 150 148 145 139 133 127 119 112 107 104 102 102 103 104 104 105 105 105 112 142 182 194 179 144 135 117 91 88 105 114
126 138 139 139 142 144 146 148 152 154 154 155 156 158 158 158 156 153 148 142 134 126 121 118 116 116 116 119 123 127 140 222 266 269 242 223 162 145 139 125 120 127 135
132 138 135 145 145 146 148 151 154 156 158 159 161 163 165 167 171 171 169 167 164 155 150 146 141 139 143 152 166 189 223 257 276 276 272 248 132 152 154 154 165 175 180
137 133 140 149 148 149 151 154 157 159 160 161 164 167 170 174 181 184 184 186 186 181 177 174 174 177 185 197 211 227 242 257 274 265 261 246 151 163 162 167 185 203 210
138 134 145 151 152 154 157 160 162 164 166 167 170 174 178 184 191 194 195 196 197 198 198 197 202 208 213 220 227 236 245 255 261 274 272 245 154 162 169 176 191 214 225
134 136 144 153 156 160 164 167 169 171 173 175 178 182 187 193 200 203 202 201 202 205 210 216 222 228 230 232 236 241 247 258 257 258 261 244 161 167 175 182 194 215 232
135 136 149 156 161 166 172 175 177 179 181 184 188 192 197 201 205 206 205 208 208 212 219 226 233 237 240 241 241 244 248 252 267 275 274 245 166 173 180 187 200 217 231
138 141 155 160 164 171 177 183 185 187 189 192 196 200 204 208 213 214 212 211 216 219 224 231 237 242 245 246 246 246 248 253 253 257 257 221 173 178 186 196 209 222 232
144 144 163 162 169 177 181 181 186 192 197 198 202 207 209 215 212 209 219 211 211 217 223 231 238 243 246 246 244 243 245 244 250 245 243 185 175 182 193 205 218 229 235
170 161 167 166 170 185 190 169 185 193 193 203 204 198 206 223 230 218 203 202 206 214 222 230 237 244 244 247 237 230 234 235 246 249 213 173 181 188 199 210 222 232 237
179 182 172 175 168 187 190 164 187 197 187 198 215 199 205 222 228 227 185 187 203 213 222 226 227 232 234 232 239 211 221 240 235 242 195 180 184 194 206 214 224 233 237
182 188 183 187 167 194 200 180 185 197 188 192 198 202 201 214 239 230 201 181 191 203 209 225 207 218 229 233 233 228 223 231 241 234 186 186 191 200 210 217 226 233 237
181 185 188 182 174 185 230 231 200 200 202 195 188 194 203 204 216 233 223 202 206 208 197 208 221 226 229 237 241 243 240 239 240 238 205 193 198 206 213 219 224 231 236
183 184 185 178 176 177 203 234 261 234 209 219 197 189 197 210 210 217 218 207 223 243 243 203 219 222 229 242 250 252 248 253 243 234 228 202 208 211 215 221 223 227 232
188 181 177 178 183 181 204 218 232 243 242 221 214 197 190 202 212 207 221 211 212 221 228 224 238 234 234 243 246 250 246 245 252 244 242 226 212 217 220 223 225 225 228
203 179 180 191 189 186 200 214 228 236 239 233 216 208 197 200 206 209 214 220 215 215 217 211 221 235 235 244 259 267 265 253 246 242 235 236 228 225 218 223 227 226 228
205 173 178 202 194 189 197 209 232 249 248 249 234 212 204 200 204 208 219 225 225 220 217 231 215 215 233 240 259 258 260 262 258 255 242 240 238 229 219 216 218 223 227
135 152 180 194 221 215 202 210 226 242 247 239 242 234 222 207 204 207 215 221 228 235 230 232 255 244 242 249 265 274 284 275 263 253 246 244 234 224 223 222 202 222 227
20 16 341 281 260 257 250 236 233 236 243 250 240 233 228 223 217 209 230 222 218 232 232 227 230 239 240 246 263 276 274 272 264 254 236 242 247 231 214 201 198 214 211
15 8 359 356 320 288 268 264 257 256 253 247 250 248 240 226 219 223 222 224 215 224 232 226 221 219 228 218 219 249 282 296 277 259 231 224 231 223 222 227 218 217 225
360 356 355 349 334 320 301 284 279 276 263 258 252 247 242 234 222 222 227 224 217 215 228 227 219 215 225 219 209 200 212 237 300 296 285 259 224 211 222 227 222 215 218
348 345 345 352 342 327 314 297 283 271 266 263 263 260 253 243 236 229 228 227 227 224 224 227 221 211 214 223 219 216 218 207 243 296 300 272 233 225 230 263 283 256 225
336 336 342 353 340 328 313 299 293 286 280 279 276 269 260 247 235 232 228 225 226 228 223 221 218 212 209 215 210 209 218 222 229 238 271 293 300 261 216 211 225 260 272
325 332 342 343 334 328 320 313 305 299 297 292 284 273 264 254 243 236 231 224 224 224 222 220 218 215 211 211 212 214 208 205 212 218 242 264 274 272 244 213 196 200 200